Location: Unspecified
(0.0000°N, 0.0000°E)
Time: 13:39:13
(UTC+02:00)

OPAL - Visible Passes

Search period start: 21 April 2015 00:00
Search period end: 01 May 2015 00:00
Orbit: 744 x 796 km, 100.2° (Epoch: 20 April)

Date Brightness Start Highest point End Pass type
(mag) Time Alt. Az. Time Alt. Az. Time Alt. Az.
21 Apr 9.0 20:16:37 10° ENE 20:19:34 16° ESE 20:22:50 10° SE visible
21 Apr 9.2 21:53:42 10° NNW 21:58:21 33° WNW 22:02:56 10° SW visible
22 Apr 7.5 21:17:51 10° NNE 21:23:04 89° WNW 21:28:19 10° SSW visible
23 Apr 8.2 20:43:13 10° NE 20:47:48 33° ESE 20:52:30 10° SSE visible
23 Apr 10.3 22:23:24 10° NW 22:26:35 16° WNW 22:29:29 10° WSW visible
24 Apr 8.7 21:46:20 10° N 21:51:14 42° WNW 21:56:09 10° SW visible
25 Apr 7.4 21:10:49 10° NNE 21:15:59 70° ESE 21:21:12 10° S visible
26 Apr 8.5 20:36:32 10° NE 20:40:42 26° ESE 20:45:02 10° SSE visible
26 Apr 9.9 22:15:35 10° NNW 22:19:28 20° WNW 22:23:10 10° WSW visible
27 Apr 8.2 21:39:03 10° N 21:44:09 56° WNW 21:49:15 10° SSW visible
28 Apr 7.6 21:03:50 10° NNE 21:08:54 53° ESE 21:14:00 10° S visible
29 Apr 8.8 20:30:00 10° ENE 20:33:35 20° ESE 20:37:24 10° SSE visible
29 Apr 9.5 22:07:59 10° NNW 22:12:22 26° WNW 22:16:36 10° SW visible
30 Apr 7.7 21:31:52 10° N 21:37:03 73° WNW 21:42:16 10° SSW visible
